Location: Владивосток
(43.1151°N, 131.8856°E)
Time: 06:47:04
(UTC+10:00)

EO-88 - Pass Details

Date: 30 June 2022
Orbit: 453 x 461 km, 97.3° (Epoch: 13 August)

Event Time Altitude Azimuth Distance (km) Brightness Sun altitude
Exits shadow 21:30:49 - 109° (ESE) 1,929 ? -5.9°
Reaches altitude 10° 21:32:00 10° 95° (E) 1,628 ? -6.1°
Maximum altitude 21:33:43 13° 65° (ENE) 1,439 ? -6.3°
Drops below altitude 10° 21:35:27 10° 36° (NE) 1,634 ? -6.6°
Sets 21:38:22 0° 9° (N) 2,515 ? -7.0°
